LA8QT Lodingen NO current weather conditions

sailwx.info

Wind from 284 at 4 knots

Air temperature 13.9° C
Dewpoint 11.1° C

Last reported at 2015-Jul-29 23:39 UTC.
Time now 2015-Jul-30 00:08 UTC

Location: N 68°28' E 016°04'.
View on Google Maps.

See reports from other nearby stations

  
Tides and Currents Weather Stations Pressure Air Temp Water Temp Dewpoint Dewpoint Depression Visibility Wind Speed Wind Dir Waves Ship Positions
date/time (UTC)wind fromknots sea level pressurealtimeterstation pressurevisibilityair tempwater tempwave heightnotes
2015-Jul-29 23:39 284 4 13.9
2015-Jul-29 23:24 300 5 13.9
2015-Jul-29 23:09 311 5 13.9
2015-Jul-29 22:54 323 3 13.9
2015-Jul-29 22:39 319 6 13.9
2015-Jul-29 22:24 317 5 14.4
2015-Jul-29 22:09 313 5 14.4
2015-Jul-29 21:54 305 2 13.9
2015-Jul-29 21:39 325 4 14.4
2015-Jul-29 21:24 329 5 14.4
2015-Jul-29 21:09 352 6 15.0
2015-Jul-29 20:54 353 4 15.6
2015-Jul-29 20:39 352 5 16.1
2015-Jul-29 20:24 337 4 16.7
2015-Jul-29 20:09 333 2 16.1
2015-Jul-29 19:54 329 3 16.7
2015-Jul-29 19:39 333 5 17.2
2015-Jul-29 19:24 331 5 17.2
2015-Jul-29 19:09 333 4 17.2
2015-Jul-29 18:54 319 6 16.7
2015-Jul-29 18:39 029 5 16.7
2015-Jul-29 18:24 026 4 17.8
2015-Jul-29 18:09 357 4 18.3
2015-Jul-29 17:54 344 6 18.3
2015-Jul-29 17:39 015 5 18.9
2015-Jul-29 17:24 356 4 18.9
2015-Jul-29 17:09 341 3 19.4
2015-Jul-29 16:54 327 2 19.4
2015-Jul-29 16:39 344 2 19.4
2015-Jul-29 16:24 329 4 20.0
2015-Jul-29 16:09 009 6 20.0
2015-Jul-29 15:54 321 6 20.6
2015-Jul-29 15:39 344 4 20.6
2015-Jul-29 15:24 013 5 20.6
2015-Jul-29 15:09 343 4 20.6
2015-Jul-29 14:53 335 6 20.0
2015-Jul-29 14:38 021 6 20.6
2015-Jul-29 14:23 350 6 20.0
2015-Jul-29 14:08 341 6 20.0
2015-Jul-29 13:53 009 7 20.0
2015-Jul-29 13:38 002 4 20.6
2015-Jul-29 13:23 017 5 20.6
2015-Jul-29 13:08 002 5 20.6
2015-Jul-29 12:53 006 4 20.6
2015-Jul-29 12:38 350 4 20.6
2015-Jul-29 12:23 012 3 20.6
2015-Jul-29 12:08 342 2 20.6
2015-Jul-29 11:53 360 3 20.6
2015-Jul-29 11:23 013 5 19.4
2015-Jul-29 11:08 019 4 20.0
2015-Jul-29 10:53 010 6 19.4
2015-Jul-29 10:38 359 6 18.9
2015-Jul-29 10:23 014 6 18.9
2015-Jul-29 10:08 359 4 19.4
2015-Jul-29 09:53 347 6 18.9
2015-Jul-29 09:38 019 4 18.3
2015-Jul-29 09:23 021 5 18.3
2015-Jul-29 09:08 340 6 17.8
2015-Jul-29 08:53 005 5 17.8
2015-Jul-29 08:38 331 6 17.2
2015-Jul-29 08:23 010 4 17.2
2015-Jul-29 08:08 343 6 16.7
2015-Jul-29 07:53 346 5 16.1
2015-Jul-29 07:38 011 2 16.1
2015-Jul-29 07:23 015 6 15.6
2015-Jul-29 07:08 320 4 15.6
2015-Jul-29 06:53 360 6 15.0
2015-Jul-29 06:38 344 1 15.0
2015-Jul-29 06:23 358 1 15.0
2015-Jul-29 06:08 346 4 15.0
2015-Jul-29 05:53 349 0 15.0
2015-Jul-29 05:38 319 3 15.0
2015-Jul-29 05:23 355 14.4
2015-Jul-29 05:08 355 3 13.3
2015-Jul-29 04:53 360 3 12.8
2015-Jul-29 04:38 002 1 13.3
2015-Jul-29 04:23 015 3 12.8
2015-Jul-29 04:08 002 13.3
2015-Jul-29 03:52 002 12.2
2015-Jul-29 03:37 003 2 12.2
2015-Jul-29 03:22 013 3 11.7
2015-Jul-29 03:07 013 0 11.7
2015-Jul-29 02:52 347 0 12.2
2015-Jul-29 02:37 358 12.2
2015-Jul-29 02:22 004 2 11.7
2015-Jul-29 02:07 009 11.7
2015-Jul-29 01:52 344 11.7
2015-Jul-29 01:37 330 11.1
2015-Jul-29 01:22 337 11.1
2015-Jul-29 01:07 341 11.1
2015-Jul-29 00:52 341 11.1
2015-Jul-29 00:37 341 11.7
2015-Jul-29 00:22 341 11.7
2015-Jul-29 00:07 341 11.1
2015-Jul-28 23:52 341 11.1
2015-Jul-28 23:37 341 11.7
2015-Jul-28 23:22 341 11.7
2015-Jul-28 23:07 341 12.2
2015-Jul-28 22:52 304 12.8
2015-Jul-28 22:37 304 12.2
2015-Jul-28 22:22 304 12.2
2015-Jul-28 22:07 210 12.8
2015-Jul-28 21:52 210 12.2
2015-Jul-28 21:37 210 12.2
2015-Jul-28 21:22 210 12.2
2015-Jul-28 21:07 210 12.8
2015-Jul-28 20:52 210 12.2
2015-Jul-28 20:37 210 12.8
2015-Jul-28 20:22 286 12.8
2015-Jul-28 20:07 290 12.2
2015-Jul-28 19:52 290 12.2
2015-Jul-28 19:37 290 12.8
2015-Jul-28 19:22 290 12.8
2015-Jul-28 19:07 290 12.8
2015-Jul-28 18:52 300 0 12.8
2015-Jul-28 18:37 132 13.3
2015-Jul-28 18:22 194 0 13.9
2015-Jul-28 18:07 125 3 13.3
2015-Jul-28 17:52 133 6 13.3
2015-Jul-28 17:37 133 6 13.3
2015-Jul-28 17:22 124 6 13.9
2015-Jul-28 17:07 100 0 13.9
2015-Jul-28 16:52 136 0 14.4
2015-Jul-28 16:37 117 15.6
2015-Jul-28 16:22 117 0 15.0
2015-Jul-28 16:07 119 1 15.0
2015-Jul-28 15:52 210 2 15.6
2015-Jul-28 15:37 179 2 15.6
2015-Jul-28 15:22 163 2 15.6
2015-Jul-28 15:07 178 15.6
2015-Jul-28 14:52 130 4 15.0
2015-Jul-28 14:37 081 4 14.4
2015-Jul-28 14:22 146 0 14.4
2015-Jul-28 14:07 132 3 13.9
2015-Jul-28 13:52 166 5 14.4
2015-Jul-28 13:37 086 3 14.4
2015-Jul-28 13:22 162 3 14.4
2015-Jul-28 13:07 192 0 14.4
2015-Jul-28 12:52 187 15.0
2015-Jul-28 12:37 188 1 15.6
2015-Jul-28 12:22 149 1 16.1
2015-Jul-28 12:07 137 8 14.4
2015-Jul-28 11:52 135 9 14.4
2015-Jul-28 11:37 157 8 15.0
2015-Jul-28 11:22 119 4 15.0
2015-Jul-28 11:07 103 5 15.0
2015-Jul-28 10:52 106 8 14.4
2015-Jul-28 10:37 121 6 15.0
2015-Jul-28 10:22 117 15.6
2015-Jul-28 10:07 117 15.6
2015-Jul-28 09:52 117 15.6
2015-Jul-28 09:37 117 15.0
2015-Jul-28 09:22 117 3 15.0
2015-Jul-28 09:07 089 2 14.4
2015-Jul-28 08:51 207 15.0
2015-Jul-28 08:36 213 14.4
2015-Jul-28 08:21 214 14.4
2015-Jul-28 08:06 214 14.4
2015-Jul-28 07:51 216 13.9
2015-Jul-28 07:36 108 13.3
2015-Jul-28 07:21 108 13.3
2015-Jul-28 07:06 108 1 12.8
2015-Jul-28 06:51 114 13.3
2015-Jul-28 06:36 114 13.3
2015-Jul-28 06:21 114 0 13.3
2015-Jul-28 06:06 081 12.8
2015-Jul-28 05:51 081 12.8
2015-Jul-28 05:36 081 0 12.2
2015-Jul-28 05:21 090 12.2
2015-Jul-28 05:06 094 12.8
2015-Jul-28 04:51 163 12.2
2015-Jul-28 04:36 179 12.2
2015-Jul-28 04:21 188 0 11.7
2015-Jul-28 04:06 201 11.7
2015-Jul-28 03:51 187 0 11.7
2015-Jul-28 03:36 198 11.7
2015-Jul-28 03:25 102 0 11.7
2015-Jul-28 03:06 099 0 11.1
2015-Jul-28 02:51 135 1 11.1
2015-Jul-28 02:36 146 3 11.1
2015-Jul-28 02:21 154 4 11.1
2015-Jul-28 02:06 141 6 11.1
2015-Jul-28 01:51 128 5 11.1
2015-Jul-28 01:36 189 6 11.1
2015-Jul-28 01:21 173 4 11.7
2015-Jul-28 01:06 158 1 11.7
2015-Jul-28 00:51 158 6 11.7
2015-Jul-28 00:36 130 6 11.7
2015-Jul-28 00:21 193 3 12.2
2015-Jul-28 00:06 209 5 12.2